Tiempo cada hora Al Hufuf

Hoy, 27 Julio, Martes

Tiempo Temperatura Precipitaciones Viento Presión Humedad
00:00 +39°C° 0 mm 2 mps 735 mmHg 42%
01:00 +39°C° 0 mm 2 mps 735 mmHg 47%
02:00 +38°C° 0 mm 3 mps 735 mmHg 52%
03:00 +37°C° 0 mm 3 mps 735 mmHg 57%
04:00 +37°C° 0 mm 3 mps 735 mmHg 58%
05:00 +37°C° 0 mm 2 mps 735 mmHg 58%
06:00 +36°C° 0 mm 1 mps 735 mmHg 59%
07:00 +39°C° 0 mm 1 mps 735 mmHg 50%
08:00 +41°C° 0 mm 2 mps 735 mmHg 41%
09:00 +43°C° 0 mm 2 mps 735 mmHg 32%
10:00 +45°C° 0 mm 2 mps 735 mmHg 26%
11:00 +47°C° 0 mm 2 mps 735 mmHg 19%
12:00 +49°C° 0 mm 2 mps 734 mmHg 13%
13:00 +50°C° 0 mm 2 mps 734 mmHg 12%
14:00 +50°C° 0 mm 2 mps 733 mmHg 10%
15:00 +51°C° 0 mm 2 mps 733 mmHg 9%
16:00 +50°C° 0 mm 2 mps 732 mmHg 10%
17:00 +50°C° 0 mm 3 mps 732 mmHg 10%
18:00 +49°C° 0 mm 4 mps 732 mmHg 11%
19:00 +47°C° 0 mm 3 mps 733 mmHg 15%
20:00 +45°C° 0 mm 3 mps 733 mmHg 19%
21:00 +42°C° 0 mm 2 mps 734 mmHg 23%
22:00 +41°C° 0 mm 2 mps 733 mmHg 23%
23:00 +41°C° 0 mm 2 mps 733 mmHg 22%

Mañana, 28 Julio, Miércoles

Tiempo Temperatura Precipitaciones Viento Presión Humedad
00:00 +41°C° 0 mm 2 mps 733 mmHg 22%
01:00 +40°C° 0 mm 2 mps 732 mmHg 22%
02:00 +40°C° 0 mm 2 mps 732 mmHg 22%
03:00 +39°C° 0 mm 3 mps 732 mmHg 22%
04:00 +39°C° 0 mm 2 mps 733 mmHg 22%
05:00 +39°C° 0 mm 2 mps 733 mmHg 22%
06:00 +37°C° 0 mm 1 mps 733 mmHg 23%
07:00 +41°C° 0 mm 2 mps 733 mmHg 19%
08:00 +43°C° 0 mm 2 mps 734 mmHg 15%
09:00 +46°C° 0 mm 3 mps 734 mmHg 11%
10:00 +49°C° 0 mm 4 mps 734 mmHg 10%
11:00 +50°C° 0 mm 4 mps 733 mmHg 9%
12:00 +53°C° 0 mm 5 mps 733 mmHg 8%
13:00 +53°C° 0 mm 5 mps 733 mmHg 8%
14:00 +52°C° 0 mm 4 mps 732 mmHg 8%
15:00 +53°C° 0 mm 4 mps 732 mmHg 8%
16:00 +51°C° 0 mm 4 mps 732 mmHg 9%
17:00 +50°C° 0 mm 4 mps 732 mmHg 10%
18:00 +49°C° 0 mm 4 mps 732 mmHg 11%
19:00 +48°C° 0 mm 4 mps 733 mmHg 11%
20:00 +46°C° 0 mm 3 mps 733 mmHg 11%
21:00 +45°C° 0 mm 2 mps 733 mmHg 11%
22:00 +43°C° 0 mm 2 mps 733 mmHg 11%
23:00 +42°C° 0 mm 2 mps 733 mmHg 12%

Pasado mañana, 29 Julio, Jueves

Tiempo Temperatura Precipitaciones Viento Presión Humedad
00:00 +41°C° 0 mm 1 mps 733 mmHg 12%
01:00 +41°C° 0 mm 2 mps 733 mmHg 12%
02:00 +40°C° 0 mm 3 mps 733 mmHg 12%
03:00 +41°C° 0 mm 4 mps 733 mmHg 12%
04:00 +41°C° 0 mm 5 mps 733 mmHg 14%
05:00 +40°C° 0 mm 5 mps 734 mmHg 15%
06:00 +40°C° 0 mm 6 mps 734 mmHg 17%
07:00 +43°C° 0 mm 7 mps 735 mmHg 15%
08:00 +45°C° 0 mm 8 mps 735 mmHg 14%
09:00 +48°C° 0 mm 10 mps 735 mmHg 12%
10:00 +50°C° 0 mm 10 mps 735 mmHg 11%
11:00 +52°C° 0 mm 10 mps 735 mmHg 9%
12:00 +54°C° 0 mm 10 mps 734 mmHg 7%
13:00 +53°C° 0 mm 10 mps 734 mmHg 7%
14:00 +53°C° 0 mm 10 mps 734 mmHg 7%
15:00 +53°C° 0 mm 10 mps 734 mmHg 7%
16:00 +51°C° 0 mm 9 mps 734 mmHg 8%
17:00 +49°C° 0 mm 8 mps 734 mmHg 8%
18:00 +47°C° 0 mm 7 mps 735 mmHg 9%
19:00 +45°C° 0 mm 6 mps 735 mmHg 12%
20:00 +43°C° 0 mm 4 mps 735 mmHg 15%
21:00 +40°C° 0 mm 3 mps 735 mmHg 18%
22:00 +39°C° 0 mm 2 mps 735 mmHg 19%
23:00 +38°C° 0 mm 2 mps 735 mmHg 19%

30 Julio, Viernes

Tiempo Temperatura Precipitaciones Viento Presión Humedad
00:00 +37°C° 0 mm 1 mps 735 mmHg 20%
01:00 +37°C° 0 mm 1 mps 735 mmHg 19%
02:00 +36°C° 0 mm 1 mps 734 mmHg 18%
03:00 +37°C° 0 mm 2 mps 734 mmHg 17%
04:00 +37°C° 0 mm 2 mps 735 mmHg 17%
05:00 +37°C° 0 mm 2 mps 735 mmHg 16%
06:00 +38°C° 0 mm 3 mps 736 mmHg 16%
07:00 +40°C° 0 mm 3 mps 736 mmHg 14%
08:00 +43°C° 0 mm 3 mps 736 mmHg 11%
09:00 +46°C° 0 mm 3 mps 737 mmHg 9%
10:00 +48°C° 0 mm 4 mps 736 mmHg 8%
11:00 +49°C° 0 mm 4 mps 736 mmHg 7%
12:00 +50°C° 0 mm 5 mps 736 mmHg 6%
13:00 +52°C° 0 mm 5 mps 736 mmHg 6%
14:00 +52°C° 0 mm 5 mps 735 mmHg 6%
15:00 +52°C° 0 mm 6 mps 735 mmHg 6%
16:00 +49°C° 0 mm 6 mps 735 mmHg 9%
17:00 +47°C° 0 mm 6 mps 735 mmHg 12%
18:00 +46°C° 0 mm 6 mps 735 mmHg 15%
19:00 +43°C° 0 mm 5 mps 735 mmHg 19%
20:00 +42°C° 0 mm 4 mps 736 mmHg 24%
21:00 +39°C° 0 mm 3 mps 736 mmHg 28%
22:00 +39°C° 0 mm 2 mps 736 mmHg 29%
23:00 +37°C° 0 mm 1 mps 736 mmHg 29%

31 Julio, Sábado

Tiempo Temperatura Precipitaciones Viento Presión Humedad
00:00 +37°C° 0 mm 1 mps 736 mmHg 30%
01:00 +37°C° 0 mm 1 mps 735 mmHg 27%
02:00 +37°C° 0 mm 1 mps 735 mmHg 25%
03:00 +37°C° 0 mm 1 mps 735 mmHg 22%
04:00 +37°C° 0 mm 1 mps 736 mmHg 20%
05:00 +37°C° 0 mm 1 mps 736 mmHg 19%
06:00 +37°C° 0 mm 1 mps 736 mmHg 17%
07:00 +41°C° 0 mm 1 mps 736 mmHg 14%
08:00 +43°C° 0 mm 2 mps 737 mmHg 11%
09:00 +46°C° 0 mm 2 mps 737 mmHg 9%
10:00 +47°C° 0 mm 2 mps 737 mmHg 8%
11:00 +50°C° 0 mm 3 mps 736 mmHg 7%
12:00 +51°C° 0 mm 4 mps 736 mmHg 6%
13:00 +51°C° 0 mm 4 mps 736 mmHg 6%
14:00 +53°C° 0 mm 5 mps 735 mmHg 6%
15:00 +53°C° 0 mm 6 mps 735 mmHg 6%
16:00 +51°C° 0 mm 6 mps 735 mmHg 8%
17:00 +48°C° 0 mm 6 mps 736 mmHg 11%
18:00 +46°C° 0 mm 6 mps 736 mmHg 13%
19:00 +43°C° 0 mm 5 mps 736 mmHg 18%
20:00 +41°C° 0 mm 4 mps 736 mmHg 22%
21:00 +39°C° 0 mm 3 mps 737 mmHg 27%
22:00 +38°C° 0 mm 3 mps 736 mmHg 26%
23:00 +38°C° 0 mm 2 mps 736 mmHg 26%

1 Agosto, Domingo

Tiempo Temperatura Precipitaciones Viento Presión Humedad
00:00 +37°C° 0 mm 2 mps 736 mmHg 26%
01:00 +36°C° 0 mm 1 mps 736 mmHg 25%
02:00 +35°C° 0 mm 1 mps 735 mmHg 25%
03:00 +33°C° 0 mm 0 mps 735 mmHg 24%
04:00 +35°C° 0 mm 1 mps 735 mmHg 23%
05:00 +36°C° 0 mm 1 mps 736 mmHg 21%
06:00 +36°C° 0 mm 1 mps 736 mmHg 20%
07:00 +39°C° 0 mm 1 mps 737 mmHg 16%
08:00 +42°C° 0 mm 2 mps 737 mmHg 13%
09:00 +45°C° 0 mm 2 mps 737 mmHg 10%
10:00 +47°C° 0 mm 3 mps 737 mmHg 9%
11:00 +50°C° 0 mm 3 mps 736 mmHg 7%
12:00 +51°C° 0 mm 4 mps 736 mmHg 6%
13:00 +52°C° 0 mm 5 mps 736 mmHg 6%
14:00 +53°C° 0 mm 5 mps 735 mmHg 6%
15:00 +53°C° 0 mm 6 mps 735 mmHg 6%
16:00 +51°C° 0 mm 6 mps 735 mmHg 8%
17:00 +48°C° 0 mm 6 mps 735 mmHg 9%
18:00 +47°C° 0 mm 5 mps 735 mmHg 11%
19:00 +44°C° 0 mm 4 mps 736 mmHg 15%
20:00 +42°C° 0 mm 3 mps 736 mmHg 19%
21:00 +40°C° 0 mm 3 mps 736 mmHg 24%
22:00 +39°C° 0 mm 2 mps 736 mmHg 23%
23:00 +38°C° 0 mm 2 mps 736 mmHg 23%
Mostrar más

Necesitamos Su Consentimiento

Meteoprog y nuestros Proveedores de Servicios pueden almacenar y acceder a sus datos personales como cookies, identificadores de dispositivo u otras tecnologías similares de su dispositivo y procesar dichos datos para personalizar contenido y anuncios, además de ofrecer funciones de redes sociales y analizar el tráfico.

  • Almacenar y/o acceder a información en su dispositivo

    Se puede almacenar o acceder a cookies, identificadores de dispositivo u otra información de su dispositivo para los fines anteriormente indicados.

  • Anuncios y contenido personalizados, medición de anuncios y contenido, percepciones del público, y desarrollo de productos

    Los anuncios y el contenido pueden personalizarse en base a su perfil. Se pueden añadir más datos para personalizar mejor los anuncios y contenidos. Se puede medir el rendimiento de los anuncios y contenidos. Se puede obtener la percepción sobre el público que ha visto los anuncios y contenidos. Dichos datos pueden usarse para desarrollar o mejorar la experiencia del usuario, sistemas y software.

Al hacer clic en ‘Estoy De Acuerdo’ usted permitirá el uso de las cookies, identificadores de dispositivo, balizas web u otras tecnologías similares indicadas. Su configuración puede cambiarse desde el navegador de su dispositivo.

Para ciertos fines, los intereses legítimos pueden ser considerados por encima del consentimiento. Puede leer más sobre ello en nuestra Política de Privacidad y Cookies.